Tracking 30009 objects as of 7-Dec-2024
HD Live streaming from Space Station
objects crossing your sky now

METEOR 2-17 DEB

Track METEOR 2-17 DEB now!
10-day predictions


NORAD ID: 38285
Int'l Code: 1988-005AN
Perigee: 901.7 km
Apogee: 925.4 km
Inclination: 82.5 °
Period: 103.1 minutes
Semi major axis: 7284 km
RCS: 0.0154 m2 (small)
Launch date: January 30, 1988
Source: Commonwealth of Independent States (former USSR) (CIS)
Launch site: PLESETSK MISSILE AND SPACE COMPLEX (PKMTR)

Note: This is SATELLITE DEBRIS
Your satellite tracking list
Your tracking list is empty




NASA's NSSDC Master Catalog

Two Line Element Set (TLE):
1 38285U 88005AN  24341.86110914  .00004011  00000-0  28957-2 0  9990
2 38285  82.5488  20.8777 0016267  70.3868 289.9053 13.96375035132934
Source of the keplerian elements: AFSPC